Regional Weather Roundup
Issued by NWS

Home | Current Version | Previous Version | Graphics & Text | Print | Product List | Glossary On
Versions: 1 2 3 4 5 6 7 8 9 10 11 12 13 14 15 16 17 18 19 20 21 22 23 24 25 26 27
000
ASUS45 KTFX 291010
RWRMT
MONTANA REGIONAL WEATHER ROUNDUP
NATIONAL WEATHER SERVICE GREAT FALLS MT
400 AM MDT MON MAY 29 2017

NOTE: "FAIR" INDICATES FEW OR NO CLOUDS BELOW 12000 FEET WITH NO
SIGNIFICANT WEATHER AND/OR OBSTRUCTIONS TO VISIBILITY.

MTZ001>007-043-291100-
WEST OF THE DIVIDE

CITY           SKY/WX    TMP DP  RH WIND       PRES   REMARKS
KALISPELL      CLEAR     48  44  86 S3        30.17R
MISSOULA       CLEAR     52  43  71 N3        30.19S
BUTTE          CLEAR     40  36  86 SE6       30.30S
MULLAN PASS    CLEAR     54  35  48 SE9       30.26S
ANACONDA         N/A     45  37  76 S6        30.28S
DEER LODGE       N/A     43  37  81 CALM      30.30R
EUREKA           N/A     52  43  71 CALM      30.16R
HAMILTON         N/A     50  39  66 S7        30.20S
PLAINS           N/A     48  42  80 CALM      30.15R
RONAN            N/A     49  43  80 N3        30.19S
$$

MTZ008-052>055-291100-
SOUTHWEST MONTANA

CITY           SKY/WX    TMP DP  RH WIND       PRES   REMARKS
BOZEMAN        CLEAR     41  39  93 SE3       30.27R
DILLON         CLEAR     42  36  79 S5        30.28R
ENNIS          CLEAR     39  36  87 E6        30.33S
THREE FORKS      N/A     42  40  93 CALM      30.23R
TWIN BRIDGES     N/A     44  34  68 W3        30.23R
$$

MTZ009-010-012-014-046-048-049-054-291100-
EAST SLOPES AND CENTRAL MONTANA

CITY           SKY/WX    TMP DP  RH WIND       PRES   REMARKS
CUT BANK       MOCLDY    47  40  76 NE3       30.24F
GREAT FALLS    CLEAR     43  41  93 SW7       30.25S
MALMSTROM AFB  CLEAR     44  43  99 SW5       30.25R
HELENA         MOCLDY    50  43  77 CALM      30.25R
CHOTEAU          N/A     46  43  87 S5        30.26S
CONRAD           N/A     42  42 100 CALM      30.24S
$$

MTZ011-013-016-021-045-047-050-051-291100-
NORTH CENTRAL MONTANA

CITY           SKY/WX    TMP DP  RH WIND       PRES   REMARKS
HAVRE          CLEAR     39  30  70 CALM      30.24S
LEWISTOWN      CLEAR     41  36  82 SE5       30.26R
N BAR RANCH      N/A     39  32  75 VRB5      30.29S
CHINOOK          N/A     37  32  81 CALM      30.25R
$$

MTZ017>020-022>027-061-062-291100-
NORTHEAST MONTANA

CITY           SKY/WX    TMP DP  RH WIND       PRES   REMARKS
GLASGOW        CLEAR     40  31  70 N6        30.18S
JORDAN           N/A     37  27  67 W6        30.20R
SIDNEY         CLEAR     44  35  70 NW13      30.13R
WOLF POINT     CLEAR     45  35  68 NW8       30.17R
MALTA          CLEAR     37  32  81 CALM      30.23R
PLENTYWOOD       N/A     43  36  75 SW5       30.13R
POPLAR           N/A     45  36  70 N8        30.16S
SCOBEY           N/A     41  30  65 CALM      30.13S
$$

MTZ028>42-056>058-291100-
SOUTHCENTRAL AND SOUTHEAST MONTANA

CITY           SKY/WX    TMP DP  RH WIND       PRES   REMARKS
BAKER          CLEAR     41  31  67 NW3       30.15R
BILLINGS       PTCLDY    50  41  71 N6        30.23R
LIVINGSTON     CLEAR     39  38  96 NW6       30.27R
MILES CITY     CLEAR     42  26  53 NW10      30.17R
BIG TIMBER     CLEAR     43  43 100 W8        30.29R
EKALAKA          N/A     40  30  67 SE1       30.12R
FORSYTH          N/A     46  30  53 CALM      30.20R
LAUREL           N/A     45  37  73 CALM      30.20
ROUNDUP          N/A     51  27  39 W2        30.14R
$$

REGIONAL REPORTS...DAKOTAS

CITY           SKY/WX    TMP DP  RH WIND       PRES   REMARKS
WILLISTON      PTCLDY    47  38  71 NW13      30.10S
MINOT          CLOUDY    52  43  71 NW17G26   29.98R
DICKINSON      CLEAR     39  35  86 NW9       30.07R
BEACH            N/A     39  36  87 NW5       30.16S
CROSBY           N/A     45  41  87 NW12      30.08S
TIOGA            N/A     45  45 100 NW12      30.08S
WATFORD CITY     N/A     45  39  81 W6        30.09S
BISMARCK       CLOUDY    51  43  74 NW13G18   30.00R
GRAND FORKS    LGT RAIN  51  50  96 NW12      29.81R
FARGO          CLOUDY    52  48  86 NW15      29.81S
BUFFALO SD       N/A     43  34  70 NW8       30.07R
RAPID CITY     CLEAR     43  36  76 NW7       30.13R
$$

REGIONAL REPORTS...WYOMING/IDAHO/WASHINGTON

CITY           SKY/WX    TMP DP  RH WIND       PRES   REMARKS
GILLETTE       CLEAR     46  41  82 W12       30.19S
SHERIDAN       PTCLDY    50  40  68 NW8       30.21S
BUFFALO WY     CLEAR     51  37  58 NW9       30.23F
CODY           CLEAR     49  41  74 S3        30.28R
YELLOWSTONE LA   N/A     28  28 100 CALM      30.39S
IDAHO FALLS    CLEAR     44  41  89 N9        30.22R
SALMON         CLEAR     46  37  71 CALM      30.21R
BOISE          CLEAR     58  43  57 S3        30.08S
SPOKANE        CLEAR     63  46  54 CALM      30.08S
$$

REGIONAL REPORTS...ALBERTA

CITY           SKY/WX    TMP DP  RH WIND       PRES   REMARKS
EDMONTON       CLEAR     39  36  87 CALM      30.23S
CALGARY        PTCLDY    50  36  57 SE6       30.24S
LETHBRIDGE     CLEAR     45  39  81 S6        30.23S
MEDICINE HAT   CLEAR     39  32  75 S2        30.23S
WATERTON GATE    N/A     41  39  93 SW7         N/A
MILK RIVER       N/A     41  39  93 NW3         N/A
ONEFOUR          N/A     41  30  65 NE10        N/A
$$

REGIONAL REPORTS...SASKATCHEWAN

CITY           SKY/WX    TMP DP  RH WIND       PRES   REMARKS
SWIFT CURRENT  CLEAR     37  32  81 W7        30.21R
REGINA         MOCLDY    46  41  81 NW13      30.11S
SASKATOON      PTCLDY    37  34  87 NW8       30.19R WCI  31
CYPRESS HILLS    N/A     39  28  65 CALM        N/A
VAL MARIE        N/A     30  25  80 SW5         N/A
ROCKGLEN         N/A     39  36  87 NW7         N/A
ASSINIBOIA       N/A     39  37  93 SW1         N/A
$$




USA.gov is the U.S. government's official web portal to all federal, state and local government web resources and services.